Home   Weather   Istanbul   Past weeks
Flag for Turkey

Past Weather in Istanbul, Turkey — Yesterday and Last 2 Weeks

Now
68 °F

Partly sunny.


Feels Like: 68 °F
Forecast: 72 / 60 °F
Wind: 7 mph from Southeast

Location: Istanbul Ataturk Airport

Current Time: Oct 17, 2019 at 11:35:16 am

Latest Report: Oct 17, 2019 at 10:50 am


Visibility: N/A

Pressure: 30.09 "Hg

Humidity: 73%

Dew Point: 59 °F

Location of IstanbulLocation

Past Weather in Istanbul — Graph

°F

Istanbul Temperature Yesterday

Maximum temperature yesterday: 72 °F (at 2:50 pm)
Minimum temperature yesterday: 64 °F (at 12:20 am)
Average temperature yesterday: 67 °F

High & Low Weather Summary for the Past Weeks

 TemperatureHumidityPressure
High86 °F (Oct 4, 4:20 pm)100% (Oct 3, 4:20 am)30.30 "Hg (Oct 3, 4:20 am)
Low54 °F (Oct 7, 6:50 am)31% (Oct 4, 4:20 pm)29.68 "Hg (Oct 5, 1:20 am)
Average67 °F74%30.03 "Hg
* Reported Oct 2 10:20 am — Oct 17 10:20 am, Istanbul. Weather by CustomWeather, © 2019

Note: Actual official high and low records may vary slightly from our data, if they occured in-between our weather recording intervals... More about our weather records

Advertising

Istanbul Weather History for the Previous 24 Hours

Scroll right to see more
 ConditionsComfort  
Time TempWeatherWind HumidityBarometerVisibility
10:20 am
Thu, Oct 17
70 °FPartly sunny.6 mph69%30.09 "HgN/A
9:50 am68 °FPartly sunny.6 mph73%30.09 "HgN/A
9:20 am68 °FPartly sunny.6 mph73%30.09 "HgN/A
8:50 am66 °FPartly sunny.6 mph78%30.07 "HgN/A
8:20 am66 °FPartly sunny.5 mph78%30.07 "HgN/A
7:50 am66 °FPartly sunny.3 mph78%30.07 "HgN/A
7:20 am66 °FPartly sunny.3 mph78%30.07 "HgN/A
6:50 am66 °FPassing clouds.5 mph78%30.07 "HgN/A
6:20 am66 °FPassing clouds.3 mph78%30.07 "HgN/A
5:50 am66 °FPartly cloudy.5 mph78%30.07 "HgN/A
5:20 am66 °FPartly cloudy.2 mph78%30.07 "HgN/A
4:50 am66 °FPassing clouds.5 mph78%30.04 "HgN/A
4:20 am66 °FPassing clouds.5 mph78%30.04 "HgN/A
3:50 am66 °FPassing clouds.6 mph78%30.04 "HgN/A
3:20 am66 °FPassing clouds.7 mph78%30.04 "HgN/A
2:50 am66 °FPassing clouds.8 mph78%30.04 "HgN/A
2:20 am66 °FPassing clouds.6 mph78%30.04 "HgN/A
1:50 am66 °FPassing clouds.6 mph78%30.04 "HgN/A
1:20 am66 °FPassing clouds.7 mph78%30.04 "HgN/A
12:50 am66 °FPassing clouds.8 mph78%30.04 "HgN/A
12:20 am66 °FPassing clouds.7 mph78%30.04 "HgN/A
11:50 pm
Wed, Oct 16
66 °FPassing clouds.6 mph78%30.04 "HgN/A
11:20 pm66 °FPassing clouds.7 mph78%30.07 "HgN/A
10:50 pm66 °FPassing clouds.6 mph78%30.07 "HgN/A
10:20 pm66 °FPassing clouds.7 mph78%30.07 "HgN/A
9:50 pm68 °FPassing clouds.7 mph73%30.07 "HgN/A
9:20 pm66 °FPassing clouds.9 mph78%30.04 "HgN/A
8:50 pm66 °FPassing clouds.9 mph78%30.04 "HgN/A
8:20 pm66 °FPassing clouds.9 mph78%30.04 "HgN/A
7:50 pm66 °FPassing clouds.9 mph78%30.04 "HgN/A
7:20 pm66 °FClear.8 mph78%30.04 "Hg10 mi
6:50 pm68 °FClear.12 mph73%30.04 "Hg10 mi
6:20 pm68 °FSunny.10 mph69%30.04 "Hg10 mi
5:50 pm68 °FScattered clouds.10 mph69%30.04 "HgN/A
5:20 pm70 °FScattered clouds.12 mph64%30.04 "HgN/A
4:50 pm70 °FScattered clouds.7 mph69%30.04 "HgN/A
4:20 pm70 °FScattered clouds.6 mph73%30.04 "HgN/A
3:50 pm70 °FScattered clouds.5 mph73%30.04 "HgN/A
3:20 pm72 °FPartly sunny.5 mph69%30.04 "HgN/A
2:50 pm72 °FPartly sunny.3 mph69%30.04 "HgN/A
2:20 pm70 °FPartly sunny.7 mph73%30.04 "HgN/A
1:50 pm70 °FPartly sunny.6 mph69%30.04 "HgN/A
1:20 pm70 °FPartly sunny.5 mph69%30.07 "HgN/A
12:50 pm70 °FPartly sunny.6 mph69%30.07 "HgN/A
12:20 pm68 °FPartly sunny.5 mph78%30.07 "HgN/A
11:50 am68 °FPartly sunny.6 mph78%30.07 "HgN/A
11:20 am68 °FPartly sunny.5 mph78%30.07 "HgN/A
Weather by CustomWeather, © 2019

See weather overview